Regional Weather Roundup
Issued by NWS

Home | Current Version | Previous Version | Text Only | Print | Product List | Glossary Off
Versions: 1 2 3 4 5 6 7 8 9 10 11 12 13 14 15 16 17 18 19 20 21 22 23 24 25 26 27 28 29 30 31 32 33 34 35 36 37 38 39 40 41 42 43 44 45 46 47 48 49 50

000
ASUS43 KFSD 252302
RWRSD

WEATHER ROUNDUP FOR SOUTH DAKOTA
NATIONAL WEATHER SERVICE SIOUX FALLS SD
600 PM CDT SUN JUN 25 2017

NOTE: "FAIR" INDICATES FEW OR NO CLOUDS BELOW 12,000 FEET WITH NO
SIGNIFICANT WEATHER AND/OR OBSTRUCTIONS TO VISIBILITY.


SDZ001>005-009-010-012>017-260000-
NORTHWEST AND NORTH CENTRAL SOUTH DAKOTA

CITY           SKY/WX    TMP DP  RH WIND       PRES   REMARKS
BUFFALO          N/A     79  28  15 NW23G39   30.13F
FAITH            N/A     77  34  21 NE13G24   30.17F
MOBRIDGE       SUNNY     76  37  24 N14       30.17F
$$

SDZ012>016-024>037-041>051-057-063-072>074-260000-
SOUTHWEST AND SOUTH CENTRAL SOUTH DAKOTA

CITY           SKY/WX    TMP DP  RH WIND       PRES   REMARKS
RAPID CTY ARPT MOSUNNY   79  37  22 NW5       30.20F
PIERRE         MOSUNNY   76  35  22 NW8       30.14F
CUSTER         PTSUNNY   71  31  22 N10G18    30.30F
ELLSWORTH AFB  MOSUNNY   78  37  22 NW5       30.20F
PHILIP         MOSUNNY   81  33  17 NW9       30.16F
PINE RIDGE     PTSUNNY   77  41  27 VRB5      30.20F
SPEARFISH      FAIR      75  34  22 N13G20    30.25S
WINNER         FAIR      82  34  17 MISG      30.18F
$$

SDZ004>011-016>023-039-040-260000-
NORTHEAST SOUTH DAKOTA

CITY           SKY/WX    TMP DP  RH WIND       PRES   REMARKS
ABERDEEN       CLOUDY    58  50  75 E6        30.20F
WATERTOWN      LGT RAIN  56  49  77 NW8       30.22F
BROOKINGS      MOSUNNY   66  43  43 N10       30.22F
SISSETON         N/A     67  43  41 W16G25    30.16F
$$

SDZ017-020-022-023-036>040-048>070-260000-
SOUTHEAST SOUTH DAKOTA

CITY           SKY/WX    TMP DP  RH WIND       PRES   REMARKS
SIOUX FALLS    PTSUNNY   72  46  39 NW15      30.21F
HURON          CLOUDY    71  44  37 N7        30.18F
CHAMBERLAIN    PTSUNNY   77  41  27 S5        30.17F
MITCHELL       SUNNY     76  39  26 E3        30.19F
YANKTON        MOSUNNY   73  40  30 CALM      30.23F
$$

ABBREVIATIONS USED IN REMARKS
   TC - TEMPERATURE IN CELSIUS
  WCI - WIND CHILL INDEX
   HX - HEAT INDEX
  VSB - VISIBILITY





USA.gov is the U.S. government's official web portal to all federal, state and local government web resources and services.